Regional Weather Roundup
Issued by NWS San Diego, CA

Home | Current Version | Previous Version | Text Only | Print | Product List | Glossary On
Versions: 1 2 3 4 5 6 7 8 9 10 11 12 13 14 15 16 17 18 19 20 21 22 23 24 25 26 27 28 29 30 31 32 33 34 35 36 37 38 39 40 41 42 43 44 45 46 47 48 49 50
000
ASUS46 KSGX 040311
RWRSGX

SAN DIEGO HOURLY WEATHER ROUNDUP
NATIONAL WEATHER SERVICE SAN DIEGO CA
800 PM PDT SUN MAY 03 2015

NOTE: "FAIR" INDICATES FEW OR NO CLOUDS BELOW 12,000 FEET WITH NO
SIGNIFICANT WEATHER AND/OR OBSTRUCTIONS TO VISIBILITY.

CAZ042-043-060-061-PZZ750-775-040400-

GREATER SAN DIEGO AREA

CITY           SKY/WX    TMP DP  RH WIND       PRES   REMARKS
LINDBERGH FLD  MOCLDY    64  51  62 W8        29.89R
POINT LOMA       N/A     59  52  77 NW9         N/A
NATIONAL CITY    N/A     64  56  76 W3        29.89R
CHULA VISTA      N/A     63  56  79 W8        29.81R
IMPERIAL BEACH CLOUDY    64  55  72 W9        29.90R
BROWN FIELD    CLOUDY    60  54  80 W8        29.88R
MIRAMAR MCAS   CLOUDY    63  52  67 W5        29.88R
MONTGOMERY FLD CLOUDY    62  53  72 W7        29.88R

$$

NORTH SAN DIEGO COUNTY

CITY           SKY/WX    TMP DP  RH WIND       PRES   REMARKS
CAMP PENDLETON CLEAR     61  53  75 SW5       29.86R HAZE
OCEANSIDE AP   MOCLDY    61  54  77 W3        29.87R
OCEANSIDE HBR    N/A     61  58  90 W12       29.90R
VISTA            N/A     60  54  79 CALM      29.85R
CARLSBAD       CLOUDY    61  53  75 W7        29.87R
DEL MAR          N/A     62  55  77 CALM      29.90R
LA JOLLA SCRIP   N/A    N/A N/A N/A CALM      29.86R
FALLBROOK        N/A     60  57  91 SW6       29.86R
ESCONDIDO        N/A     62  54  74 W7        29.88R
SAN MARCOS       N/A     60  54  79 NW10      29.85R
POWAY            N/A     61  54  76 W5        29.88R

$$

EAST SAN DIEGO COUNTY

CITY           SKY/WX    TMP DP  RH WIND       PRES   REMARKS
RAMONA         MOCLDY    57  51  80 W12       29.87R
SANTEE LAKES     N/A     62  54  75 W3        29.88R
LA MESA          N/A     62  54  76 NW3       29.81R
JAMUL            N/A     60  53  77 CALM      29.86R
DESCANSO N       N/A     54  49  84 CALM      29.74R
MT. LAGUNA OBS   N/A     59  47  63 CALM      29.56
CAMPO            N/A     55  50  83 SW14      29.85R

$$

ORANGE COUNTY AND THE LOS ANGELES BASIN

CITY           SKY/WX    TMP DP  RH WIND       PRES   REMARKS
JOHN WAYNE AP  PTCLDY    61  52  72 W5        29.86R
LAKE FOREST FR   N/A     60  50  71 CALM      29.75R
SANTA ANA        N/A     65  52  62 CALM      29.81R
HUNTINGTON BCH   N/A     60  55  82 W3        29.87S
LOS ALAMITOS   FAIR      61  51  70 W10       29.86R
FULLERTON      CLEAR     63 N/A N/A W7        29.85R
LONG BEACH     CLEAR     62  50  64 NW10      29.85S
L.A. AP        CLEAR     58  50  75 W17       29.86R
L.A. DOWNTOWN  CLEAR     60  49  66 MISG      29.84F

$$

THE INLAND EMPIRE

CITY           SKY/WX    TMP DP  RH WIND       PRES   REMARKS
CORONA         CLEAR     63  51  64 W9        29.84R
CHINO          PTCLDY    63  50  62 W14       29.86R
ONTARIO        CLEAR     63  50  62 SW9       29.84R
SAN BERNARDINO CLEAR     66  48  52 W12       29.84R HAZE
RIVERSIDE AP   CLEAR     66  51  58 W7        29.84R
RIV CYN CREST    N/A     67  59  77 NW3         N/A
MORENO VALLEY    N/A     66  57  72 NW3       29.79S
MARCH ARB      CLEAR     64  51  62 NW12      29.84R
HORSETHIEF CYN   N/A     66  50  56 W3        29.80R
PERRIS           N/A     66  54  64 W7          N/A
MENIFEE          N/A     66  57  72 SE7       29.88R
HEMET EAST       N/A     68  50  53 CALM      29.82R
FRENCH VALLEY  NOT AVBL
TEMECULA         N/A     62  55  77 S5        29.81R

$$

SAN BERNARDINO AND RIVERSIDE COUNTY MOUNTAINS

CITY           SKY/WX    TMP DP  RH WIND       PRES   REMARKS
BIG BEAR AP    PTCLDY    50  25  37 W6        30.03R
PINE COVE        N/A     52  35  52 NW3       29.79S

$$

SOUTHERN DESERT INCLUDING THE COACHELLA VALLEY

CITY           SKY/WX    TMP DP  RH WIND       PRES   REMARKS
PALM SPRINGS   CLEAR     87  31  13 NW18G24   29.70R
THOUSAND PALMS   N/A     83  41  21 NW16      29.66S
THERMAL        CLEAR     83  52  34 NW6       29.67R
BLYTHE         CLEAR     85  47  26 S13       29.69R
IMPERIAL AP    CLEAR     84  51  31 SE15      29.67R
EL CENTRO NAS  CLEAR     81  52  36 SE12      29.69R
YUMA AZ        CLEAR     82  52  35 S12       29.71R
MEXICALI       CLEAR     81  54  39 SE12      29.70R

$$

UPPER DESERT

CITY           SKY/WX    TMP DP  RH WIND       PRES   REMARKS
VICTORVILLE AP CLEAR     72  30  21 W15       29.84R
HESPERIA         N/A     67  44  43 SW5       29.85R
APPLE VALLEY     N/A     69  43  38 SW2       29.90R
PALMDALE       CLEAR     69  35  28 W20       29.84R
LANCASTER      CLEAR     68  35  29 SW17      29.82S
EDWARDS AFB    CLEAR     72  31  21 SW15      29.79R
DAGGETT        CLEAR     80  28  15 W22       29.75R
29 PALMS N     PTCLDY    79  34  19 SW17      29.80S
NEEDLES        PTCLDY    89  37  16 SW13      29.69R

$$

REGIONAL REPORTS

CITY           SKY/WX    TMP DP  RH WIND       PRES   REMARKS
SANTA BARBARA  CLEAR     58  50  75 W7        29.84F
SANDBERG       CLEAR     62  34  35 NW9       29.94S
MT. WILSON       N/A     55  25  30 W8          N/A
LAS VEGAS NV   PTCLDY    85  27  12 SW12      29.68R
PHOENIX AZ     MOCLDY    88  39  17 W10       29.69R
TIJUANA        CLOUDY    61  50  67 W8        29.90R
ENSENADA NW      N/A     62  32  32 W14       29.87R

$$

OFFSHORE ISLANDS

CITY           SKY/WX    TMP DP  RH WIND       PRES   REMARKS
CATALINA ARPT  CLEAR     53  50  89 SW15      29.88R
SAN NICOLAS IS CLEAR    N/A N/A N/A W7        29.88S

$$

MARINE AND OFFSHORE BUOY REPORTS

STATION/POSITION SKY/WX   TEMP    WIND        PRES    SWELL
                          AIR SEA DIR/SP/G            HT/PER/DIR
                          (F)     (DEG/KT/KT) (MB)    (FT/S/D)
TANNER BANKS               60 61  310/ 12/ 16 1012.1R   7/220/16
S CLEMENTE BASIN           61 65  300/ 12/ 14 1011.6R   5/180/21
SAN NICOLAS IS.               60                N/A     7/180/22
SO. S. ROSA ISLA           58 62  300/ 14/ 17 1011.3S   8/21
W. S. BARBARA CH           56 56  310/ 14/ 16 1011.4S   7/200/21
S. MONICA BASIN            60 63  290/ 10/ 14 1011.3R   3/190/16
S PEDRO CHANNEL               63                N/A     2/180/17
DANA POINT                    62                N/A     5/180/22
OCEANSIDE OFFSHR              61                N/A     5/190/22
TORREY PINES OTR              66                N/A     3/200/17
LA JOLLA 1                 62 67  310/  6/  9 1011.2F
MISSION BAY BUOY              65                N/A     3/200/17
SAN DIEGO BAY                                 1011.8F
POINT LOMA SOUTH              66                N/A     7/180/22

$$



USA.gov is the U.S. government's official web portal to all federal, state and local government web resources and services.